Simultaneous Nadir Overpasses (SNOs) Predictions

Prediction of SNOs between LANDSAT-8 and METOP-A Satellite Orbit:

Table of predicted SNOs for the next 14.0 days since TLE Epoch: 3/21/2014
Index Date (LANDSAT-8) Time (LANDSAT-8) Lat,Lon (LANDSAT-8) SZA (LANDSAT-8 ) Date (METOP-A) Time (METOP-A) Lat,Lon (METOP-A) SZA (METOP-A ) Distance(km) Time Diff (sec)
1 03/21/2014 23:11:24 -80.86, 48.01 98.10 03/21/2014 23:10:10 -80.99, 47.64 98.06 15.10 74
2 03/22/2014 00:00:37 81.20,-139.68 82.59 03/22/2014 00:00:36 81.19,-139.65 82.60 0.52 1
3 03/22/2014 00:50:03 -81.21, 28.27 97.38 03/22/2014 00:51:15 -81.22, 28.46 97.33 3.31 72
4 03/24/2014 18:45:23 -81.18, 118.85 98.52 03/24/2014 18:44:16 -81.18, 118.91 98.54 1.03 67
5 03/24/2014 19:34:49 81.18, -73.48 81.47 03/24/2014 19:34:56 81.18, -73.61 81.47 2.34 7
6 03/27/2014 14:19:34 -81.17,-174.79 99.61 03/27/2014 14:18:35 -81.18,-174.73 99.63 1.02 59
7 03/27/2014 15:08:59 81.20, -6.77 80.43 03/27/2014 15:09:14 81.19, -6.90 80.42 2.23 15
8 03/30/2014 09:53:43 -81.18,-108.29 100.68 03/30/2014 09:52:53 -81.17,-108.45 100.72 2.81 50
9 03/30/2014 10:43:08 81.20, 59.71 79.36 03/30/2014 10:43:31 81.20, 59.74 79.38 0.59 23
10 04/02/2014 05:27:52 -81.19, -41.65 101.72 04/02/2014 05:27:10 -81.19, -41.49 101.72 2.73 42




NCC Satellite Simultaneous Nadir Overpasses (SNOs) Prediction Service
